Flag for Germany Weather past 2 weeks in Lutherstadt Eisleben, Saxony-Anhalt, Germany

Now
55 °F

Overcast.


Feels Like: 55 °F
Forecast: 47 / 64 °F
Wind: 1 mph from Southwest

Location: Leipzig-Schkeuditz

Current Time: Aug 23, 2014 at 7:35:18 AM

Latest Report: Aug 23, 2014 at 7:00 AM


Visibility: 31 mi

Pressure: 29.90 "Hg

Humidity: 77%

Dew point: 48 °F

Location of Lutherstadt EislebenLocation

Historic Weather in Lutherstadt Eisleben — Graph

°F

Lutherstadt Eisleben temperature yesterday

Maximum temperature yesterday: 68 °F (at 3:00 PM)
Minimum temperature yesterday: 49 °F (at 6:00 AM)
Average temperature yesterday: 60 °F

Past Weeks' High & Low Weather Summary

 TemperatureHumidityPressure
High83 °F (Aug 10, 6:00 PM)97% (Aug 14, 3:00 AM)30.03 "Hg (Aug 14, 3:00 AM)
Low48 °F (Aug 21, 6:00 AM)31% (Aug 12, 6:00 PM)29.63 "Hg (Aug 13, 7:00 PM)
Average63 °F68%29.87 "Hg
* Reported Aug 8 6:00 AM — Aug 23 6:00 AM, Lutherstadt Eisleben, Weather by CustomWeather, © 2014

Note: Actual official high and low records may vary slightly from our data, if they occured in-between our weather recording intervals... More about our weather records

Advertising

Lutherstadt Eisleben weather history for previous 24 hours

 ConditionsComfort  
Time TempWeatherWind HumidityBarometerVisibility
6:00 AM
Aug 23
54 °FOvercast.1 mph76%29.89 "Hg37 mi
4:00 AM55 °FOvercast.2 mph70%29.89 "Hg37 mi
3:00 AM56 °FOvercast.1 mph63%29.89 "Hg37 mi
2:00 AM57 °FPassing clouds.3 mph58%29.89 "Hg37 mi
1:00 AM58 °FPassing clouds.3 mph55%29.89 "Hg37 mi
12:00 AM60 °FOvercast.3 mph49%29.90 "Hg37 mi
11:00 PM
Aug 22
59 °FPassing clouds.5 mph54%29.90 "Hg37 mi
10:00 PM61 °FOvercast.2 mph48%29.90 "Hg37 mi
9:00 PM62 °FOvercast.3 mph43%29.90 "Hg37 mi
8:00 PM64 °FOvercast.5 mph41%29.89 "Hg37 mi
7:00 PM65 °FPartly sunny.5 mph37%29.89 "Hg34 mi
6:00 PM67 °FOvercast.6 mph32%29.89 "Hg34 mi
5:00 PM67 °FOvercast.6 mph33%29.90 "Hg31 mi
4:00 PM68 °FOvercast.6 mph31%29.91 "Hg31 mi
3:00 PM68 °FOvercast.5 mph33%29.92 "Hg34 mi
2:00 PM66 °FOvercast.6 mph35%29.94 "Hg31 mi
1:00 PM66 °FOvercast.7 mph40%29.95 "Hg31 mi
12:00 PM65 °FOvercast.6 mph43%29.95 "Hg34 mi
11:00 AM64 °FPartly sunny.5 mph55%29.96 "Hg31 mi
10:00 AM60 °FPartly sunny.5 mph63%29.96 "Hg25 mi
9:00 AM56 °FOvercast.3 mph72%29.97 "Hg31 mi
8:00 AM51 °FOvercast.2 mph82%29.98 "Hg31 mi
7:00 AM49 °FPartly sunny.3 mph86%29.98 "Hg31 mi
Weather by CustomWeather, © 2014

See weather overviewHow to use our weather pages